Theta_e
309 311 313 317 309 308 312 314 312 317 320 320 320 319 318 326 326 323 338 343 342 343 344 343 342 337 335 334 333 336 338 338 336 335 335 336 335 335 335 331 318 316 316 320 337 324 322 317 317
310 313 316 313 308 310 309 311 315 314 316 317 319 320 320 323 331 332 335 337 339 341 343 343 343 342 337 331 334 335 336 337 336 337 337 335 335 337 337 337 330 316 317 321 335 334 331 323 318
313 316 315 305 305 308 310 312 313 314 315 317 318 318 324 326 330 331 334 331 333 335 336 338 341 342 342 339 333 332 336 337 338 338 339 338 338 338 338 340 339 327 315 320 335 337 335 332 319
314 314 312 310 311 311 312 310 311 312 313 314 316 315 317 323 325 327 327 329 330 328 330 333 336 339 341 342 341 336 333 333 333 334 336 340 340 340 339 339 339 331 319 317 324 336 338 336 330
314 314 308 310 311 311 310 311 311 310 311 312 313 314 313 322 324 325 326 326 325 327 327 326 327 328 329 332 337 341 338 333 331 332 329 337 338 338 336 334 332 325 317 315 321 335 337 337 334
313 311 307 309 310 311 311 311 311 311 311 312 312 312 314 316 315 317 322 322 322 324 325 324 323 323 323 324 325 330 338 340 334 332 331 333 334 336 335 333 332 326 317 314 314 322 337 338 335
310 304 306 308 310 310 312 312 311 311 311 312 312 311 313 315 314 312 312 315 319 319 320 322 321 320 319 319 321 323 332 334 338 336 336 336 337 338 337 336 335 331 321 316 314 314 333 338 338
314 307 310 309 309 311 311 312 312 311 311 312 312 309 311 312 310 310 310 313 317 319 319 320 319 318 318 319 319 320 319 331 334 335 338 338 338 338 338 337 337 336 330 323 321 314 313 334 336
313 305 306 310 311 311 310 310 311 310 310 310 309 310 310 310 310 310 310 310 311 312 313 313 313 316 318 318 319 319 319 315 314 321 332 337 337 337 337 339 339 339 338 332 329 325 314 314 320
308 304 306 309 310 310 311 311 310 310 308 309 310 310 310 310 310 310 310 310 311 310 310 310 311 311 317 318 318 318 318 317 313 313 318 330 331 335 336 336 336 337 339 339 337 332 329 319 315
309 307 310 311 311 312 311 310 310 310 308 309 310 310 309 310 311 311 311 310 309 308 309 310 310 311 313 318 318 318 318 316 315 314 315 315 321 320 324 328 334 334 336 338 338 338 337 336 331
309 309 311 311 312 311 310 310 310 310 311 311 310 308 309 310 311 310 307 307 307 308 308 307 309 310 312 315 318 318 317 316 316 316 316 316 316 313 315 321 324 326 331 333 335 335 335 336 336
309 309 310 311 310 310 309 309 309 311 311 311 309 308 309 310 310 307 307 308 308 309 309 308 309 310 311 315 318 317 316 316 317 317 314 316 315 315 313 313 313 316 319 322 329 334 333 334 335
309 309 309 310 310 310 310 310 308 310 310 309 309 308 310 311 308 307 308 309 309 309 309 310 310 310 311 312 315 315 316 315 316 315 315 316 315 314 312 311 311 311 311 313 316 320 325 329 332
310 309 308 309 309 310 308 306 306 309 309 309 309 309 310 310 307 307 309 309 308 308 309 310 310 311 313 314 313 313 314 315 315 315 314 313 313 313 312 311 311 310 310 310 310 311 312 315 317
305 305 305 308 307 309 308 307 307 308 308 308 308 309 310 309 307 307 308 308 308 309 310 310 310 310 312 313 313 313 314 315 316 316 314 313 314 313 311 312 313 313 312 312 312 311 311 310 311
300 304 305 304 306 306 307 306 306 307 307 307 308 309 310 307 307 307 308 308 309 309 310 310 312 312 311 313 314 314 313 316 316 315 314 314 314 312 313 315 316 316 316 316 315 315 314 313 312
304 304 304 304 305 305 305 305 304 306 306 306 307 310 310 307 307 307 308 308 308 309 310 310 313 313 311 314 314 314 314 316 316 316 315 313 312 312 316 317 317 316 316 316 316 316 316 316 316
305 305 305 304 305 304 305 303 305 305 305 306 309 310 311 310 306 307 307 308 308 308 310 310 312 314 315 315 316 315 316 316 315 314 312 312 313 316 317 316 316 317 317 317 317 317 317 317 317
305 306 305 304 304 305 304 305 304 306 307 309 310 310 311 311 310 307 307 308 308 308 309 310 311 311 314 315 315 315 314 313 312 312 313 313 315 317 316 316 316 315 316 317 316 316 316 317 317
304 306 306 306 304 304 303 308 305 307 309 308 309 310 310 311 310 311 310 308 307 307 309 310 311 311 311 311 311 310 310 310 310 310 311 313 315 316 316 316 315 315 315 314 315 316 316 315 315
307 304 305 305 306 309 304 311 307 303 307 307 308 309 310 310 310 310 310 311 311 311 309 309 309 310 310 310 310 309 310 310 311 312 312 313 314 315 315 315 315 313 311 312 314 315 316 315 315
306 304 305 305 305 306 307 306 307 302 305 306 307 309 306 304 304 304 306 309 310 309 309 310 311 311 312 312 311 311 311 312 312 313 314 314 314 314 314 314 314 313 309 309 310 310 313 316 315
304 306 305 303 304 309 308 306 308 302 303 306 307 305 306 304 304 304 304 305 305 305 306 306 306 307 308 309 310 310 310 310 310 310 310 310 311 311 312 313 313 312 310 309 308 309 308 311 314
304 306 307 308 307 310 307 304 306 305 304 306 305 305 305 303 303 303 304 304 304 304 304 305 305 305 305 305 304 305 305 305 306 306 307 308 308 308 309 309 309 309 309 309 308 308 307 308 309
305 307 306 307 307 307 304 309 308 302 305 304 305 305 305 305 305 305 305 305 306 306 306 306 305 305 305 305 305 305 305 305 304 304 304 304 304 305 306 307 308 308 308 309 309 308 308 308 308
306 305 304 305 303 303 307 306 305 303 302 301 305 307 306 304 305 305 305 305 305 305 304 304 304 304 304 303 303 303 303 303 304 305 305 305 304 304 303 303 304 306 307 308 308 308 308 308 307
305 303 305 303 306 312 309 307 309 303 301 299 303 305 306 304 304 304 303 303 303 302 302 301 301 301 301 301 301 302 302 303 303 303 303 304 305 306 305 303 303 303 303 305 307 307 307 307 307
304 304 302 302 305 307 304 307 303 303 300 299 303 304 305 306 303 304 303 301 301 301 301 301 300 300 300 300 300 300 300 301 302 302 303 303 303 303 304 305 305 303 303 304 305 306 307 307 307
304 305 303 306 305 302 300 305 302 301 300 302 303 304 305 306 303 302 300 300 301 301 300 300 299 299 299 299 299 299 299 300 300 300 301 302 302 303 303 303 304 305 304 303 304 305 305 306 307
Wind_Speed
2 2 4 1 4 5 2 3 0 3 2 3 4 2 0 1 1 3 5 3 4 3 3 5 6 6 8 10 11 11 11 11 11 11 10 10 9 7 6 4 5 7 8 10 10 6 4 3 2
4 5 2 2 5 3 5 3 1 0 3 5 2 3 3 1 3 4 4 5 6 5 5 8 8 6 9 11 11 13 13 14 13 12 12 11 10 9 9 6 4 6 8 12 11 8 5 2 2
6 3 1 4 4 3 3 1 2 3 7 6 3 5 3 3 4 5 3 5 5 7 8 9 10 9 10 12 14 15 14 14 14 13 13 12 12 12 11 10 8 6 8 12 12 11 8 4 2
3 2 5 4 0 1 1 3 3 5 4 11 6 2 2 6 7 7 8 6 5 8 9 9 8 11 11 13 15 17 18 18 17 16 15 15 14 13 11 12 12 10 10 13 14 13 12 8 5
3 3 4 3 2 3 2 3 6 3 2 6 7 4 8 5 7 6 6 8 11 9 9 11 12 13 15 17 18 19 20 20 20 19 18 18 17 15 14 13 13 11 11 13 15 13 13 12 9
4 4 5 1 3 2 1 8 2 4 4 5 5 6 3 3 5 7 6 7 9 11 12 12 12 14 16 18 20 21 23 22 21 20 20 19 20 17 15 14 13 12 11 12 14 15 12 14 11
6 4 3 3 2 4 2 7 2 3 5 2 7 3 4 6 10 14 11 11 12 13 15 15 15 16 17 19 21 22 23 26 25 23 23 22 21 20 18 14 14 12 11 11 12 14 13 13 12
4 5 3 2 1 4 2 5 1 3 4 7 3 2 4 12 21 22 17 13 14 15 15 17 18 20 22 20 21 22 22 23 28 30 26 25 25 22 19 17 15 12 11 11 10 12 16 15 14
3 4 1 3 4 3 2 6 2 5 9 6 4 7 13 14 15 14 14 12 15 16 18 20 22 22 21 21 21 21 21 20 20 21 31 33 28 23 21 19 18 16 12 11 10 9 12 16 18
5 4 6 3 2 2 5 2 7 5 8 4 6 7 9 12 14 16 17 19 19 19 18 17 18 21 20 19 21 18 18 16 14 14 15 15 12 15 17 20 17 17 15 14 11 10 9 11 14
2 4 3 1 3 4 3 5 2 3 4 2 9 14 17 16 15 17 21 22 22 22 21 19 19 19 18 19 19 16 12 10 10 10 9 10 15 8 9 9 9 13 14 12 11 12 11 10 11
2 1 1 1 1 2 3 7 5 7 6 9 11 15 15 12 16 20 19 17 17 17 19 16 17 16 18 16 19 17 10 4 8 9 9 6 9 11 12 14 12 10 11 9 12 13 15 15 15
2 2 2 5 11 12 9 8 6 17 13 7 7 13 11 11 16 14 12 13 14 18 20 16 13 12 15 14 15 20 23 12 16 15 11 8 7 5 11 12 12 13 13 12 11 15 16 17 17
2 5 10 5 6 4 3 3 2 3 4 4 16 14 8 12 15 12 10 13 15 18 18 18 15 11 12 10 13 13 13 7 14 14 10 12 13 12 10 10 10 11 13 16 18 17 18 20 21
2 5 4 2 4 2 7 2 6 4 8 11 20 12 7 13 11 10 9 12 16 17 17 17 16 13 9 10 13 13 15 12 19 15 13 17 17 16 14 12 12 12 13 16 17 19 21 23 22
3 4 4 2 8 2 3 7 5 4 6 21 14 9 9 13 9 8 7 9 12 13 14 17 13 12 10 9 14 14 15 15 10 9 9 19 20 18 17 16 14 14 15 17 18 19 21 23 25
7 1 3 8 4 4 1 7 5 8 18 14 8 5 10 12 5 6 5 7 9 12 14 15 12 8 7 7 8 11 15 12 9 10 10 11 20 20 17 15 15 15 15 16 18 19 21 22 24
2 2 3 6 3 4 6 13 9 22 12 8 4 6 10 13 8 5 5 6 9 10 11 13 10 8 3 4 4 7 10 11 12 13 12 12 14 19 17 16 17 17 17 17 18 20 21 24 25
2 2 4 4 2 6 3 9 12 15 1 4 6 8 10 13 11 7 6 8 8 9 9 11 9 6 4 3 5 7 11 13 14 12 11 13 14 16 18 18 17 17 16 16 17 19 21 22 23
3 3 3 4 2 3 6 11 5 7 5 7 6 8 10 11 13 10 8 8 9 10 9 9 10 7 5 7 9 10 11 11 11 11 11 11 14 14 15 16 18 19 18 17 18 19 20 19 16
3 2 2 3 7 1 7 4 4 3 3 3 8 9 9 11 12 11 11 10 9 8 8 8 10 9 7 8 9 10 12 13 13 13 12 12 12 14 16 17 18 18 17 18 16 16 15 14 15
1 1 1 4 5 3 5 4 3 3 3 3 8 10 9 10 9 9 9 8 9 9 8 8 8 9 9 10 11 12 13 14 15 16 16 15 14 15 16 16 15 15 16 15 15 14 13 12 14
2 2 1 1 2 2 2 3 6 2 3 0 5 7 9 10 10 10 8 7 8 8 8 7 8 8 9 10 11 12 13 14 14 14 15 15 15 16 16 17 17 16 15 15 16 16 13 11 13
3 3 3 3 2 2 1 4 5 4 4 3 2 6 8 11 10 8 9 8 7 8 8 7 6 6 7 9 10 12 13 14 15 15 15 14 15 16 17 17 18 18 17 16 17 19 16 14 15
6 5 4 5 4 4 1 1 8 3 3 4 3 6 8 8 9 10 10 10 10 11 11 9 7 7 8 9 10 11 13 15 17 18 18 18 18 17 16 17 18 19 20 20 20 19 20 18 16
4 2 4 4 2 5 4 6 5 3 4 7 9 8 6 6 6 7 8 9 9 9 9 9 10 10 11 10 10 11 12 14 16 18 19 20 20 20 20 20 21 22 22 23 23 23 22 22 20
1 3 1 3 1 2 4 7 6 3 3 8 11 15 13 4 2 4 5 6 8 8 11 12 12 12 13 14 13 14 14 15 16 18 19 20 21 22 22 22 24 25 25 26 26 26 25 24 23
2 4 3 3 2 5 5 5 5 5 8 6 6 9 13 7 4 7 8 8 9 10 11 13 15 17 18 18 18 18 18 18 19 18 19 20 22 22 24 25 25 26 26 26 28 29 28 26 25
2 1 4 2 3 4 3 6 5 6 8 9 3 9 15 14 9 3 5 7 8 9 12 15 18 21 22 22 23 23 23 23 22 22 22 23 24 24 25 25 25 26 27 27 28 30 29 28 28
2 3 5 3 4 4 2 7 4 5 5 13 1 9 16 13 8 2 4 7 10 12 16 20 22 23 24 25 25 26 27 27 27 26 25 24 25 25 25 26 27 27 27 27 28 29 30 30 29
Wind_Direction
214 181 148 109 57 63 278 265 149 32 38 357 337 30 182 96 106 236 344 359 358 7 346 338 315 273 250 237 233 229 229 227 224 225 223 219 221 222 220 209 198 194 193 175 185 185 174 158 147
169 149 125 85 86 64 275 301 19 66 343 357 8 14 55 49 22 344 351 350 349 350 327 318 317 290 263 255 247 244 242 237 232 230 225 223 221 223 221 214 216 207 196 193 188 203 188 170 168
149 154 37 87 93 166 242 322 335 18 45 25 29 30 36 4 8 354 334 336 322 325 315 308 305 300 277 263 257 248 245 246 246 233 232 229 224 225 225 222 226 234 217 202 199 204 204 198 191
149 111 59 77 221 250 317 349 305 358 36 40 10 34 2 9 347 333 324 315 309 311 314 318 309 299 289 277 268 259 253 248 246 248 243 232 233 225 219 215 228 244 234 218 209 208 213 213 204
107 66 54 51 313 314 9 3 2 21 33 5 13 330 334 34 14 6 349 333 327 315 305 310 309 303 300 294 285 272 261 253 252 250 248 243 235 237 230 230 239 245 236 226 220 216 219 215 213
68 64 56 323 299 297 20 354 1 26 356 346 7 329 317 61 38 12 325 311 311 308 302 301 301 303 303 302 295 285 272 258 250 252 253 248 242 236 231 233 233 236 229 224 223 222 228 222 216
98 77 153 189 269 306 302 358 45 339 316 317 338 314 266 243 326 330 317 302 297 299 302 293 293 296 298 303 302 294 280 269 256 243 236 234 236 239 230 231 231 231 224 219 223 221 220 217 227
89 92 109 242 256 271 344 352 289 332 298 309 303 257 316 311 302 303 305 297 289 290 291 290 293 298 298 298 300 298 290 279 268 258 242 233 233 234 230 234 233 229 226 219 219 222 217 220 233
95 64 163 218 170 271 344 15 318 296 286 302 279 301 317 325 330 333 329 309 294 288 289 291 291 291 289 291 294 293 292 292 292 286 261 239 233 232 232 231 232 231 226 224 223 223 224 222 230
78 108 213 193 196 259 319 310 311 313 316 309 321 328 334 336 336 334 332 326 317 309 295 287 289 290 282 275 281 284 289 295 300 301 287 268 248 232 229 231 236 238 234 228 226 230 229 232 234
98 163 189 301 245 282 292 292 261 279 310 321 326 332 338 342 346 341 331 326 324 316 305 294 279 281 284 272 270 273 284 301 316 319 329 302 283 350 305 290 232 238 241 240 248 251 242 254 253
81 116 191 291 247 287 265 294 279 230 247 316 317 331 332 343 344 338 341 350 350 347 336 300 285 265 279 285 275 268 259 319 339 328 327 337 341 304 301 287 283 280 267 264 247 251 255 254 258
58 348 290 284 291 279 274 262 258 277 289 275 316 329 337 344 341 351 4 7 6 6 8 351 319 270 270 291 286 273 273 299 303 285 309 321 307 287 264 271 272 274 272 269 255 256 254 261 258
334 306 294 302 298 271 282 285 344 238 151 186 347 337 348 347 346 4 13 14 17 18 11 10 357 319 292 297 303 298 269 269 312 312 292 310 308 305 295 294 286 281 280 274 268 260 255 258 260
337 345 331 18 346 320 337 273 226 228 242 295 333 356 357 351 351 7 9 14 12 14 9 360 354 356 341 290 289 288 292 282 288 297 297 288 313 314 305 301 295 285 279 277 275 272 268 264 262
42 57 27 311 357 9 33 280 235 234 274 310 330 346 353 355 1 9 6 14 13 13 5 356 339 326 323 293 278 283 289 284 286 288 281 278 282 304 304 303 300 292 283 278 276 273 270 269 267
10 16 356 319 70 334 5 267 254 297 306 306 336 6 1 1 15 12 6 6 8 358 1 3 358 325 316 318 270 284 297 299 291 297 284 280 271 302 304 304 302 297 290 286 285 283 280 274 269
303 353 280 249 332 3 269 264 286 304 292 302 17 25 13 13 6 350 354 348 350 360 6 10 16 14 322 304 299 285 294 304 304 302 292 286 277 289 297 300 299 295 291 288 286 286 283 282 281
125 215 244 263 293 327 247 290 311 338 52 83 73 28 18 18 8 346 332 334 340 347 352 6 19 27 11 323 303 298 304 299 300 304 303 295 291 293 301 305 302 303 301 296 292 290 288 282 279
219 253 294 282 296 324 334 311 313 16 52 88 62 35 18 11 20 18 351 335 337 347 345 355 1 358 336 311 303 304 307 307 309 313 310 299 299 298 298 300 305 303 297 299 297 297 297 290 288
220 205 3 256 321 69 310 328 2 19 77 67 53 41 27 14 10 12 14 8 354 339 351 344 348 348 334 326 318 312 309 308 307 302 301 301 295 291 297 302 306 309 306 304 296 294 298 300 298
35 189 71 319 24 294 10 276 315 337 328 29 43 37 18 3 356 355 354 359 4 6 351 339 337 336 333 325 318 313 310 310 308 306 303 300 294 291 291 294 298 305 308 308 298 291 285 283 290
228 30 318 133 123 41 8 70 267 296 215 62 32 20 12 6 3 0 352 345 347 341 339 340 342 342 334 331 326 323 318 317 312 309 307 305 301 297 293 291 291 295 303 303 303 297 292 283 275
331 96 65 60 86 28 179 126 273 200 195 148 61 30 21 22 26 24 25 21 8 352 336 330 338 337 325 323 324 321 318 314 310 310 306 302 300 298 296 292 289 287 289 297 301 295 293 289 277
33 40 338 352 5 228 7 106 250 234 171 132 110 43 39 43 46 49 52 47 39 34 32 23 10 356 343 335 330 323 320 316 312 308 304 300 296 292 292 289 286 287 288 291 294 299 297 292 286
40 91 143 251 260 280 312 241 261 226 124 112 75 48 38 45 57 58 56 50 45 37 35 30 22 12 7 1 354 345 333 325 320 315 311 307 302 297 293 288 284 282 282 284 286 288 292 293 287
27 42 154 87 340 24 249 286 295 152 131 126 77 37 25 25 53 76 74 57 46 34 24 18 11 3 355 351 345 339 334 327 320 317 316 311 307 303 299 293 285 282 281 280 282 283 285 289 286
81 152 41 12 316 275 283 277 246 199 196 165 82 26 12 1 165 104 80 61 46 38 29 19 12 5 358 353 350 346 340 332 325 320 315 309 305 304 301 297 293 288 282 278 278 278 279 283 285
73 61 60 138 173 216 290 261 219 221 193 168 107 29 10 354 196 86 58 37 30 24 17 12 6 0 355 351 347 343 339 335 330 324 318 312 308 305 301 297 293 289 286 283 279 277 277 278 280
150 190 158 138 254 232 195 270 343 298 203 162 8 349 350 339 183 119 52 36 20 11 4 358 353 349 346 341 338 334 331 328 325 321 317 313 310 306 301 298 295 292 286 283 280 276 273 273 275